This demonstration page uses our WeatherBlox Daily Observations layout. Learn more.

Left ArrowRight Arrow

34.74481, -87.66753

Hourly Observations for March 8, 2018

Temp ( °F °C ) Dew Point ( °F °C ) Humidity (%) Winds ( mph kmh ) Pressure ( in mb ) Visibility ( mi km ) Precip ( " mm )
12:53 am 00:53 Clear 32 0 26 -3.3 79 79 Calm 30.10 1019 10 16 0.00 0.00
1:53 am 01:53 Clear 31 -0.6 25 -3.9 79 79 SW 6 9 30.09 1019 10 16 0.00 0.00
2:53 am 02:53 Clear 32 0 25 -3.9 75 75 W 6 9 30.09 1019 10 16 0.00 0.00
3:53 am 03:53 Clear 35 1.7 26 -3.3 70 70 WNW 13 20 30.10 1019 10 16 0.00 0.00
4:53 am 04:53 Clear 35 1.7 26 -3.3 70 70 WNW 9 15 30.12 1020 10 16 0.00 0.00
5:53 am 05:53 Clear 34 1.1 25 -3.9 70 70 NNW 8 13 30.13 1020 10 16 0.00 0.00
6:53 am 06:53 Sunny 34 1.1 25 -3.9 70 70 NW 10 17 30.16 1022 10 16 0.00 0.00
7:53 am 07:53 Sunny 36 2.2 23 -5 59 59 NW 12 19 30.17 1022 10 16 0.00 0.00
8:53 am 08:53 Sunny 38 3.3 21 -6.1 51 51 NW 12 19 30.19 1022 10 16 0.00 0.00
9:53 am 09:53 Sunny 40 4.4 21 -6.1 47 47 VRB 6 9 30.18 1022 10 16 0.00 0.00
10:53 am 10:53 Partly Cloudy 42 5.6 21 -6.1 43 43 WNW 8 13 30.18 1022 10 16 0.00 0.00
11:53 am 11:53 Partly Cloudy 45 7.2 22 -5.6 40 40 WNW 18 30 30.17 1022 9 14 0.00 0.00
12:36 pm 12:36 Hazy 45 7.2 23 -5 42 42 WNW 17 28 30.15 1021 3 5 0.00 0.00
12:43 pm 12:43 Hazy 46 7.8 23 -5 40 40 W 16 26 30.15 1021 3 4 0.00 0.00
12:51 pm 12:51 Hazy 45 7 27 -3 49 49 NW 13 20 30.15 1021 5 8 0.00 0.00
12:53 pm 12:53 Hazy 46 7.8 26 -3.3 46 46 W 15 24 30.16 1021 5 8 0.00 0.00
1:03 pm 13:03 Hazy 47 8.3 27 -2.8 46 46 WNW 16 26 30.15 1021 2 3 0.00 0.00
1:10 pm 13:10 Hazy 45 7.2 25 -3.9 46 46 WNW 15 24 30.15 1021 3 5 0.00 0.00
1:53 pm 13:53 Sunny 47 8.3 23 -5 39 39 WNW 14 22 30.14 1021 10 16 0.00 0.00
2:53 pm 14:53 Sunny 48 8.9 22 -5.6 36 36 WNW 10 17 30.13 1020 10 16 0.00 0.00
3:53 pm 15:53 Sunny 49 9.4 21 -6.1 33 33 WNW 12 19 30.12 1020 10 16 0.00 0.00
4:53 pm 16:53 Sunny 48 8.9 20 -6.7 33 33 NNW 9 15 30.12 1020 10 16 0.00 0.00
5:53 pm 17:53 Clear 46 7.8 20 -6.7 35 35 NW 8 13 30.12 1020 10 16 0.00 0.00
6:53 pm 18:53 Clear 44 6.7 21 -6.1 40 40 NNW 5 7 30.14 1021 10 16 0.00 0.00
7:53 pm 19:53 Clear 42 5.6 21 -6.1 43 43 NNW 7 11 30.15 1021 10 16 0.00 0.00
8:53 pm 20:53 Clear 39 3.9 21 -6.1 48 48 N 5 7 30.15 1021 10 16 0.00 0.00
9:53 pm 21:53 Clear 36 2.2 21 -6.1 55 55 WNW 3 6 30.16 1021 10 16 0.00 0.00
10:53 pm 22:53 Clear 36 2.2 20 -6.7 52 52 Calm 30.16 1021 10 16 0.00 0.00
11:53 pm 23:53 Clear 32 0 22 -5.6 66 66 SE 3 6 30.14 1021 10 16 0.00 0.00

Powered by AerisWeather